When you browse on this site, cookies collect data to enhance your experience and personalize the content and advertising you see.
Visit our Privacy Policy to learn more. By continuing to use the site, you agree to this use of cookies and data.
  • en France
  • Liste des pays
  • À 7 jours
  • Température de l'eau
  • Carte satellitaire
  • Carte météo
  • Widgets météo
  • user-avatar
    Se connecter

    Météo par heure à Bafatá

    Ce jour, 24 Mai, Vendredi

    Heure Température Précipitation Vent Pression Humidité
    00:00 +30°C° 0 mm 3 m/s 755 mmHg 56%
    01:00 +29°C° 0 mm 3 m/s 755 mmHg 58%
    02:00 +29°C° 0 mm 3 m/s 755 mmHg 61%
    03:00 +28°C° 0 mm 3 m/s 755 mmHg 65%
    04:00 +28°C° 0 mm 2 m/s 755 mmHg 68%
    05:00 +27°C° 0 mm 2 m/s 756 mmHg 72%
    06:00 +29°C° 0 mm 2 m/s 756 mmHg 62%
    07:00 +31°C° 0 mm 1 m/s 756 mmHg 52%
    08:00 +34°C° 0 mm 1 m/s 757 mmHg 42%
    09:00 +39°C° 0 mm 1 m/s 756 mmHg 33%
    10:00 +40°C° 0 mm 0 m/s 756 mmHg 23%
    11:00 +45°C° 0 mm 0 m/s 756 mmHg 14%
    12:00 +45°C° 0 mm 0 m/s 755 mmHg 13%
    13:00 +48°C° 0 mm 1 m/s 754 mmHg 13%
    14:00 +49°C° 0 mm 1 m/s 753 mmHg 12%
    15:00 +47°C° 0 mm 1 m/s 753 mmHg 13%
    16:00 +46°C° 0 mm 1 m/s 753 mmHg 14%
    17:00 +46°C° 0 mm 2 m/s 752 mmHg 15%
    18:00 +42°C° 0 mm 3 m/s 753 mmHg 28%
    19:00 +37°C° 0 mm 4 m/s 754 mmHg 41%
    20:00 +33°C° 0 mm 5 m/s 754 mmHg 54%
    21:00 +32°C° 0 mm 4 m/s 755 mmHg 56%
    22:00 +30°C° 0 mm 4 m/s 756 mmHg 57%
    23:00 +30°C° 0 mm 3 m/s 756 mmHg 59%

    Demain, 25 Mai, Samedi

    Heure Température Précipitation Vent Pression Humidité
    00:00 +29°C° 0 mm 3 m/s 756 mmHg 62%
    01:00 +29°C° 0 mm 3 m/s 756 mmHg 65%
    02:00 +28°C° 0 mm 2 m/s 756 mmHg 67%
    03:00 +28°C° 0 mm 2 m/s 756 mmHg 69%
    04:00 +28°C° 0 mm 2 m/s 756 mmHg 70%
    05:00 +27°C° 0 mm 1 m/s 756 mmHg 72%
    06:00 +29°C° 0 mm 1 m/s 756 mmHg 64%
    07:00 +31°C° 0 mm 1 m/s 757 mmHg 55%
    08:00 +32°C° 0 mm 1 m/s 757 mmHg 47%
    09:00 +36°C° 0 mm 1 m/s 757 mmHg 39%
    10:00 +40°C° 0 mm 1 m/s 757 mmHg 30%
    11:00 +43°C° 0 mm 1 m/s 757 mmHg 21%
    12:00 +44°C° 0 mm 1 m/s 756 mmHg 20%
    13:00 +45°C° 0 mm 2 m/s 755 mmHg 18%
    14:00 +46°C° 0 mm 2 m/s 754 mmHg 16%
    15:00 +45°C° 0 mm 2 m/s 754 mmHg 18%
    16:00 +44°C° 0 mm 3 m/s 753 mmHg 19%
    17:00 +43°C° 0 mm 4 m/s 753 mmHg 21%
    18:00 +40°C° 0 mm 4 m/s 754 mmHg 29%
    19:00 +36°C° 0 mm 4 m/s 755 mmHg 38%
    20:00 +33°C° 0 mm 4 m/s 756 mmHg 46%
    21:00 +32°C° 0 mm 4 m/s 756 mmHg 51%
    22:00 +30°C° 0 mm 3 m/s 757 mmHg 55%
    23:00 +29°C° 0 mm 3 m/s 757 mmHg 60%

    Après-demain, 26 Mai, Dimanche

    Heure Température Précipitation Vent Pression Humidité
    00:00 +29°C° 0 mm 3 m/s 757 mmHg 63%
    01:00 +29°C° 0 mm 2 m/s 757 mmHg 66%
    02:00 +28°C° 0 mm 2 m/s 757 mmHg 68%
    03:00 +28°C° 0 mm 2 m/s 757 mmHg 70%
    04:00 +28°C° 0 mm 1 m/s 757 mmHg 72%
    05:00 +27°C° 0 mm 1 m/s 757 mmHg 74%
    06:00 +28°C° 0 mm 1 m/s 757 mmHg 69%
    07:00 +29°C° 0 mm 1 m/s 758 mmHg 64%
    08:00 +31°C° 0 mm 2 m/s 758 mmHg 59%
    09:00 +34°C° 0 mm 2 m/s 758 mmHg 53%
    10:00 +36°C° 0 mm 2 m/s 758 mmHg 46%
    11:00 +38°C° 0 mm 2 m/s 758 mmHg 39%
    12:00 +39°C° 0 mm 2 m/s 757 mmHg 36%
    13:00 +40°C° 0 mm 1 m/s 756 mmHg 32%
    14:00 +41°C° 0 mm 1 m/s 755 mmHg 28%
    15:00 +40°C° 0 mm 2 m/s 755 mmHg 30%
    16:00 +39°C° 0 mm 2 m/s 755 mmHg 32%
    17:00 +38°C° 0 mm 3 m/s 754 mmHg 34%
    18:00 +37°C° 0 mm 3 m/s 755 mmHg 41%
    19:00 +35°C° 0 mm 3 m/s 756 mmHg 48%
    20:00 +33°C° 0 mm 3 m/s 756 mmHg 55%
    21:00 +31°C° 0.1 mm 3 m/s 757 mmHg 60%
    22:00 +30°C° 0.1 mm 2 m/s 757 mmHg 65%
    23:00 +29°C° 0.1 mm 2 m/s 757 mmHg 70%

    27 Mai, Lundi

    Heure Température Précipitation Vent Pression Humidité
    00:00 +29°C° 0 mm 2 m/s 757 mmHg 71%
    01:00 +29°C° 0 mm 2 m/s 757 mmHg 73%
    02:00 +28°C° 0 mm 1 m/s 756 mmHg 75%
    03:00 +28°C° 0 mm 1 m/s 756 mmHg 75%
    04:00 +28°C° 0 mm 1 m/s 756 mmHg 74%
    05:00 +27°C° 0 mm 1 m/s 756 mmHg 74%
    06:00 +29°C° 0 mm 1 m/s 757 mmHg 64%
    07:00 +31°C° 0 mm 1 m/s 757 mmHg 54%
    08:00 +34°C° 0 mm 1 m/s 758 mmHg 44%
    09:00 +37°C° 0 mm 1 m/s 757 mmHg 37%
    10:00 +39°C° 0 mm 0 m/s 757 mmHg 30%
    11:00 +43°C° 0 mm 0 m/s 757 mmHg 23%
    12:00 +46°C° 0 mm 1 m/s 756 mmHg 22%
    13:00 +45°C° 0 mm 1 m/s 755 mmHg 22%
    14:00 +45°C° 0 mm 1 m/s 754 mmHg 21%
    15:00 +43°C° 0 mm 1 m/s 754 mmHg 24%
    16:00 +42°C° 0 mm 2 m/s 754 mmHg 26%
    17:00 +40°C° 0 mm 2 m/s 754 mmHg 29%
    18:00 +38°C° 0 mm 3 m/s 754 mmHg 35%
    19:00 +37°C° 0 mm 4 m/s 755 mmHg 41%
    20:00 +35°C° 0 mm 4 m/s 756 mmHg 47%
    21:00 +34°C° 0.2 mm 4 m/s 756 mmHg 50%
    22:00 +33°C° 0.2 mm 3 m/s 756 mmHg 54%
    23:00 +30°C° 0.2 mm 2 m/s 757 mmHg 57%

    28 Mai, Mardi

    Heure Température Précipitation Vent Pression Humidité
    00:00 +30°C° 0 mm 2 m/s 756 mmHg 59%
    01:00 +29°C° 0 mm 2 m/s 756 mmHg 60%
    02:00 +28°C° 0 mm 2 m/s 755 mmHg 61%
    03:00 +28°C° 0 mm 1 m/s 756 mmHg 61%
    04:00 +28°C° 0 mm 1 m/s 756 mmHg 61%
    05:00 +27°C° 0 mm 1 m/s 756 mmHg 61%
    06:00 +29°C° 0 mm 1 m/s 757 mmHg 51%
    07:00 +32°C° 0 mm 1 m/s 757 mmHg 41%
    08:00 +34°C° 0 mm 1 m/s 758 mmHg 31%
    09:00 +37°C° 0 mm 1 m/s 757 mmHg 26%
    10:00 +40°C° 0 mm 1 m/s 757 mmHg 20%
    11:00 +43°C° 0 mm 2 m/s 756 mmHg 15%
    12:00 +45°C° 0 mm 1 m/s 755 mmHg 14%
    13:00 +46°C° 0 mm 1 m/s 754 mmHg 13%
    14:00 +48°C° 0 mm 1 m/s 753 mmHg 12%
    15:00 +47°C° 0 mm 1 m/s 753 mmHg 13%
    16:00 +47°C° 0 mm 2 m/s 753 mmHg 13%
    17:00 +46°C° 0 mm 2 m/s 753 mmHg 14%
    18:00 +42°C° 0 mm 3 m/s 754 mmHg 23%
    19:00 +38°C° 0 mm 3 m/s 754 mmHg 32%
    20:00 +35°C° 0 mm 4 m/s 755 mmHg 42%
    21:00 +34°C° 0 mm 4 m/s 756 mmHg 40%
    22:00 +34°C° 0 mm 3 m/s 756 mmHg 38%
    23:00 +33°C° 0 mm 3 m/s 756 mmHg 36%

    29 Mai, Mercredi

    Heure Température Précipitation Vent Pression Humidité
    00:00 +31°C° 0 mm 2 m/s 756 mmHg 37%
    01:00 +30°C° 0 mm 2 m/s 756 mmHg 38%
    02:00 +29°C° 0 mm 2 m/s 756 mmHg 39%
    03:00 +29°C° 0 mm 2 m/s 756 mmHg 41%
    04:00 +28°C° 0 mm 1 m/s 756 mmHg 43%
    05:00 +27°C° 0 mm 1 m/s 756 mmHg 45%
    06:00 +29°C° 0 mm 2 m/s 756 mmHg 39%
    07:00 +31°C° 0 mm 2 m/s 756 mmHg 34%
    08:00 +34°C° 0 mm 2 m/s 757 mmHg 28%
    09:00 +37°C° 0 mm 2 m/s 756 mmHg 23%
    10:00 +40°C° 0 mm 2 m/s 756 mmHg 19%
    11:00 +43°C° 0 mm 2 m/s 755 mmHg 14%
    12:00 +45°C° 0 mm 2 m/s 755 mmHg 13%
    13:00 +46°C° 0 mm 2 m/s 754 mmHg 12%
    14:00 +47°C° 0 mm 2 m/s 753 mmHg 11%
    15:00 +47°C° 0 mm 2 m/s 753 mmHg 11%
    16:00 +47°C° 0 mm 2 m/s 752 mmHg 12%
    17:00 +46°C° 0 mm 2 m/s 752 mmHg 12%
    18:00 +43°C° 0 mm 3 m/s 753 mmHg 20%
    19:00 +38°C° 0 mm 3 m/s 753 mmHg 29%
    20:00 +35°C° 0 mm 4 m/s 754 mmHg 37%
    21:00 +34°C° 0 mm 3 m/s 754 mmHg 40%
    22:00 +33°C° 0 mm 3 m/s 755 mmHg 43%
    23:00 +31°C° 0 mm 2 m/s 755 mmHg 46%
    Voir plus